Location: Unspecified
(44.0704°N, 88.6889°W)
Time: 11:42:35
(UTC+02:00)

Altair - Pass Details

Date: 16 June 2019
Orbit: 1501 x 1683 km, 47.2° (Epoch: 17 July)

Event Time Altitude Azimuth Distance (km) Brightness Sun altitude
Rises 05:14:00 0° 228° (SW) 4,724 10.0 -13.1°
Reaches altitude 10° 05:17:02 10° 226° (SW) 3,766 9.5 -13.5°
Maximum altitude 05:26:30 65° 147° (SSE) 1,752 7.5 -14.5°
Drops below altitude 10° 05:36:20 10° 69° (ENE) 3,913 9.5 -15.5°
Sets 05:39:33 0° 66° (ENE) 4,918 10.1 -15.8°
